TimePST,TemperatureF,Dew PointF,Humidity,Sea Level PressureIn,VisibilityMPH,Wind Direction,Wind SpeedMPH,Gust SpeedMPH,PrecipitationIn,Events,Conditions,WindDirDegrees,DateUTC
12:53 AM,39.9,37.0,89,30.09,10.0,NE,3.5,-,N/A,,Clear,40,2012-12-31 08:53:00
1:53 AM,41.0,37.0,86,30.10,10.0,Calm,Calm,-,N/A,,Clear,0,2012-12-31 09:53:00
2:53 AM,39.9,36.0,86,30.12,9.0,Calm,Calm,-,N/A,,Clear,0,2012-12-31 10:53:00
3:53 AM,39.0,36.0,89,30.12,9.0,Calm,Calm,-,N/A,,Clear,0,2012-12-31 11:53:00
4:53 AM,39.0,35.1,86,30.13,10.0,NNE,3.5,-,N/A,,Clear,20,2012-12-31 12:53:00
6:53 AM,39.0,34.0,82,30.17,10.0,Calm,Calm,-,N/A,,Scattered Clouds,0,2012-12-31 14:53:00
7:53 AM,44.1,36.0,73,30.18,10.0,Calm,Calm,-,N/A,,Scattered Clouds,0,2012-12-31 15:53:00
8:53 AM,50.0,39.0,66,30.22,10.0,Calm,Calm,-,N/A,,Partly Cloudy,0,2012-12-31 16:53:00
9:53 AM,54.0,43.0,66,30.23,10.0,SSE,3.5,-,N/A,,Partly Cloudy,150,2012-12-31 17:53:00
10:53 AM,57.0,37.0,47,30.23,10.0,Calm,Calm,-,N/A,,Scattered Clouds,0,2012-12-31 18:53:00
11:53 AM,57.0,39.9,53,30.20,10.0,SW,8.1,-,N/A,,Scattered Clouds,230,2012-12-31 19:53:00
12:53 PM,57.0,39.0,51,30.18,10.0,SSW,10.4,-,N/A,,Scattered Clouds,200,2012-12-31 20:53:00
1:53 PM,57.9,39.0,49,30.17,10.0,SSW,11.5,-,N/A,,Partly Cloudy,200,2012-12-31 21:53:00
2:53 PM,57.9,37.9,47,30.18,10.0,SSW,8.1,-,N/A,,Scattered Clouds,210,2012-12-31 22:53:00
3:53 PM,55.9,39.9,55,30.19,10.0,Variable,4.6,-,N/A,,Partly Cloudy,0,2012-12-31 23:53:00
4:53 PM,55.0,39.9,57,30.21,10.0,Calm,Calm,-,N/A,,Scattered Clouds,0,2013-01-01 00:53:00
5:53 PM,54.0,41.0,62,30.21,10.0,South,3.5,-,N/A,,Partly Cloudy,170,2013-01-01 01:53:00
6:53 PM,51.1,41.0,68,30.22,10.0,Variable,3.5,-,N/A,,Clear,0,2013-01-01 02:53:00
7:53 PM,48.9,39.9,71,30.23,10.0,Calm,Calm,-,N/A,,Clear,0,2013-01-01 03:53:00
8:53 PM,48.0,39.0,71,30.24,10.0,Calm,Calm,-,N/A,,Clear,0,2013-01-01 04:53:00
9:53 PM,46.0,39.0,76,30.24,10.0,NNE,4.6,-,N/A,,Partly Cloudy,30,2013-01-01 05:53:00
10:53 PM,46.9,37.9,71,30.25,10.0,Calm,Calm,-,N/A,,Mostly Cloudy,0,2013-01-01 06:53:00
11:53 PM,46.0,37.9,73,30.24,10.0,Calm,Calm,-,N/A,,Clear,0,2013-01-01 07:53:00